FLOCK 4A-15 (44100 NORAD) Tracking and Keplerian Element Data

This shows tracking and keplerian element data for the satellite.

Feedback or suggestion? Click here.




ElementValue
Catalog44100
NameFLOCK 4A-15
Epoch Orbit430
Epoch Day119.67229935
Epoch Year2019
RAAN180.0115
Inclination97.4611
Eccentricity0.0011815
Argument of Perigee188.9766
Mean Anonmoly171.1261
Mean Motion15.22157443
Decay Rate1.568E-05
L11 44100U 19018Y 19119.67229935 .00001568 00000-0 71341-4 0 9992
L22 44100 97.4611 180.0115 0011815 188.9766 171.1261 15.22157443 4306

Live tracking and technical data element details for FLOCK 4A-15 (NORAD 44100). FLOCK 4A-15 can be tracked NOW for your location showing map with azimuth and elevation plus other details from your city location.

Track the satellite on the map from your city or location and see movement details for azimuth, elevation, latitude, longitude, range, height, and movement on the map or in text.







IsCatalogInMostPopularTable: catalog: 44100, numindb: 32
Update: records affected: 1



GetName: 44100 FLOCK 4A-15

Hit Count: updated at: Sun, 21 Jul 2019 16:24:25 GMT